COSMOS 1275 DEB, 42188

Orbit data source: Space-Track

COSMOS 1275 DEB, 42188 is space debris in LEO originally from a launch on Thu, 04 Jun 1981 UTC launched from the Plesetsk Missile And Space Complex (PKMTR). Debris objects in space refer to the collection of defunct objects orbiting the Earth. Examples of debris include non-operational satellites, rocket bodies, and fragments generated from explosions, collisions, or faulty payload assembly.

Loading next visibility...
Identifier
42188, 1981-053TC
Orbit
LEO
Country
Flag of CISCIS
Related business
Manufacturer
Unknown
Mission
Spacecraft
Bus & Motor
Unknown
Mass
Unknown
Launch date (UTC)
1981-06-04 (45 years ago)
Launch vehicle
Unknown
Launch site
Plesetsk Missile And Space Complex (PKMTR)
Object type
Payload
Rocket body
Debris
Shape & HBR
Unknown shape, 0.1 m
Radar Cross Section
Small (<0.1 m²)

Expand to show TLE details & history
Last TLE update: 21 hours ago

TLE from 21 hours ago
0 COSMOS 1275 DEB
1 42188U 81053TC  26072.33808789  .00002847  00000-0  14226-2 0  9991
2 42188  82.8496 203.7252 0048788  41.8377 318.6514 14.15891223631002
Epoch: 2026-03-13T08:06Z
TLE epoch observation values (Epoch: 2026-03-13T08:06:50.793Z)
Latitude
-0.00004°
Longitude
-88.9615°
Altitude
815.872 km
Speed
7.459 km/s
True Right ascension
13h 34m 54s
True Declination
0° 00' 00"
Sunlit
Object was in full shadow at epoch
Visualization orbit readout
Latitude
Unknown
Longitude
Unknown
Altitude
Unknown
Speed
Unknown
Apparent Right ascension
Unknown
Apparent Declination
Unknown
Sunlit
N/A
Visualization observer readout
Local Sidereal Time
09:32:03
Azimuth
Unknown
Elevation
Unknown
Doppler factor
Unknown
Orbital elements
Apogee altitude
871.576 km
Perigee altitude
801.18 km
Semi-major axis
7,214.515 km
Eccentricity
0.00488
Inclination
82.8496°
RAAN
203.7252°
Arg. of periapsis
41.8377°
True anomaly
318.28036°
Mean anomaly
318.6514°
Eccentric anomaly
318.46605°
Mean motion
3.54187 °/min
Orbital period
101.64 mins
BSTAR
0.0014226
Loading maneuver chart data...
Computing Atmospheric mass density...
Loading historical data...
Loading historical data...
Loading historical data...
Loading historical data...
Loading historical data...
Loading historical data...
Loading historical data...

Documentation

Showing up to 5 results
|